Tracking 19247 objects as of 24-Sep-2018
HD Live streaming from Space Station
objects crossing your sky now

FENGYUN 1C DEB

Track FENGYUN 1C DEB now!
10-day predictions


NORAD ID: 33745
Int'l Code: 1999-025DJJ
Perigee: 822.9 km
Apogee: 914.9 km
Inclination: 99.0 °
Period: 102.2 minutes
Semi major axis: 7239 km
RCS: 0.0047 m2 (small)
Launch date: May 10, 1999
Source: People's Republic of China (PRC)
Launch site: Taiyaun Space Center, China (TSC)

Note: This is SATELLITE DEBRIS
aabbcc
Your satellite tracking list
Your tracking list is empty




NASA's NSSDC Master Catalog

Two Line Element Set (TLE):
1 33745U 99025DJJ 18266.83509185 +.00000545 +00000-0 +33255-3 0  9994
2 33745 099.0308 220.9679 0063512 125.8026 234.9068 14.09301865287601
Source of the keplerian elements: AFSPC